TimeEST,TemperatureF,Dew PointF,Humidity,Sea Level PressureIn,VisibilityMPH,Wind Direction,Wind SpeedMPH,Gust SpeedMPH,PrecipitationIn,Events,Conditions,WindDirDegrees,DateUTC
12:15 AM,30.2,14.0,51,30.21,10.0,NNE,5.8,-,N/A,,Overcast,30,2013-02-22 05:15:00
12:35 AM,30.2,15.8,55,30.22,10.0,NNE,4.6,-,N/A,,Overcast,30,2013-02-22 05:35:00
12:55 AM,30.2,15.8,55,30.22,10.0,ENE,3.5,-,N/A,,Overcast,60,2013-02-22 05:55:00
1:15 AM,32.0,14.0,48,30.21,10.0,East,6.9,-,N/A,,Overcast,100,2013-02-22 06:15:00
1:55 AM,32.0,12.2,44,30.21,10.0,SE,3.5,-,N/A,,Overcast,140,2013-02-22 06:55:00
2:15 AM,32.0,12.2,44,30.21,10.0,East,3.5,-,N/A,,Overcast,100,2013-02-22 07:15:00
2:35 AM,32.0,12.2,44,30.21,10.0,ESE,6.9,-,N/A,,Overcast,120,2013-02-22 07:35:00
2:55 AM,32.0,12.2,44,30.21,10.0,SE,5.8,-,N/A,,Overcast,130,2013-02-22 07:55:00
3:15 AM,30.2,14.0,51,30.17,10.0,SE,4.6,-,N/A,,Overcast,130,2013-02-22 08:15:00
3:55 AM,30.2,17.6,60,30.16,10.0,SE,8.1,-,N/A,Snow,Light Snow,140,2013-02-22 08:55:00
4:15 AM,30.2,19.4,64,30.16,7.0,ESE,5.8,-,N/A,Snow,Light Snow,110,2013-02-22 09:15:00
4:35 AM,28.4,19.4,69,30.16,10.0,SE,4.6,-,N/A,Snow,Light Snow,130,2013-02-22 09:35:00
4:55 AM,28.4,21.2,74,30.16,4.0,SE,6.9,-,N/A,Snow,Light Snow,140,2013-02-22 09:55:00
5:15 AM,28.4,21.2,74,30.17,5.0,ESE,3.5,-,0.01,,Overcast,110,2013-02-22 10:15:00
5:35 AM,28.4,23.0,80,30.16,5.0,East,3.5,-,0.03,,Overcast,100,2013-02-22 10:35:00
5:55 AM,28.4,23.0,80,30.15,5.0,East,4.6,-,0.04,,Overcast,100,2013-02-22 10:55:00
6:15 AM,28.4,23.0,80,30.15,4.0,East,3.5,-,0.01,,Overcast,80,2013-02-22 11:15:00
6:35 AM,28.4,23.0,80,30.16,5.0,East,4.6,-,0.02,,Overcast,80,2013-02-22 11:35:00
6:55 AM,26.6,23.0,86,30.15,10.0,East,5.8,-,0.02,,Overcast,90,2013-02-22 11:55:00
7:15 AM,26.6,23.0,86,30.16,7.0,East,3.5,-,N/A,,Overcast,90,2013-02-22 12:15:00
7:35 AM,26.6,23.0,86,30.17,4.0,East,4.6,-,N/A,,Overcast,80,2013-02-22 12:35:00
7:55 AM,26.6,23.0,86,30.17,10.0,East,3.5,-,N/A,,Overcast,80,2013-02-22 12:55:00
8:15 AM,26.6,23.0,86,30.17,10.0,East,5.8,-,N/A,,Overcast,100,2013-02-22 13:15:00
8:35 AM,26.6,23.0,86,30.17,10.0,East,3.5,-,N/A,,Overcast,90,2013-02-22 13:35:00
8:55 AM,26.6,23.0,86,30.18,10.0,East,3.5,-,N/A,,Overcast,90,2013-02-22 13:55:00
9:15 AM,26.6,23.0,86,30.18,10.0,East,3.5,-,N/A,,Overcast,100,2013-02-22 14:15:00
9:35 AM,26.6,23.0,86,30.18,10.0,Calm,Calm,-,N/A,,Overcast,0,2013-02-22 14:35:00
9:55 AM,26.6,23.0,86,30.17,10.0,Calm,Calm,-,N/A,,Overcast,0,2013-02-22 14:55:00
10:15 AM,26.6,23.0,86,30.17,10.0,East,4.6,-,N/A,,Overcast,80,2013-02-22 15:15:00
10:35 AM,26.6,23.0,86,30.16,10.0,East,3.5,-,N/A,,Overcast,100,2013-02-22 15:35:00
10:55 AM,28.4,24.8,86,30.17,10.0,East,3.5,-,N/A,,Overcast,80,2013-02-22 15:55:00
11:15 AM,28.4,24.8,86,30.16,10.0,East,4.6,-,N/A,,Overcast,90,2013-02-22 16:15:00
11:35 AM,28.4,24.8,86,30.15,10.0,East,5.8,-,N/A,,Overcast,80,2013-02-22 16:35:00
11:55 AM,28.4,24.8,86,30.15,10.0,ENE,4.6,-,N/A,,Overcast,60,2013-02-22 16:55:00
12:15 PM,28.4,24.8,86,30.15,10.0,East,5.8,-,N/A,,Overcast,90,2013-02-22 17:15:00
12:35 PM,28.4,24.8,86,30.14,10.0,ENE,5.8,-,N/A,,Overcast,60,2013-02-22 17:35:00
12:55 PM,30.2,24.8,80,30.13,10.0,East,4.6,-,N/A,,Overcast,90,2013-02-22 17:55:00
1:15 PM,30.2,26.6,86,30.12,10.0,ENE,6.9,-,N/A,,Overcast,70,2013-02-22 18:15:00
1:35 PM,32.0,26.6,80,30.11,10.0,ENE,6.9,-,N/A,,Overcast,60,2013-02-22 18:35:00
1:55 PM,32.0,30.2,93,30.10,10.0,NNE,9.2,-,N/A,,Mostly Cloudy,20,2013-02-22 18:55:00
2:15 PM,32.0,28.4,87,30.09,10.0,NNE,9.2,-,N/A,,Mostly Cloudy,20,2013-02-22 19:15:00
2:35 PM,32.0,28.4,87,30.09,10.0,NNE,10.4,-,N/A,,Mostly Cloudy,20,2013-02-22 19:35:00
2:55 PM,32.0,28.4,87,30.09,10.0,NNE,10.4,-,N/A,,Mostly Cloudy,20,2013-02-22 19:55:00
3:15 PM,32.0,26.6,80,30.09,10.0,NNE,6.9,-,N/A,,Overcast,30,2013-02-22 20:15:00
3:35 PM,32.0,28.4,87,30.10,10.0,NE,6.9,-,N/A,,Overcast,40,2013-02-22 20:35:00
3:55 PM,32.0,28.4,87,30.09,10.0,NNE,5.8,-,N/A,,Overcast,30,2013-02-22 20:55:00
4:15 PM,32.0,28.4,87,30.09,10.0,North,9.2,-,N/A,,Overcast,10,2013-02-22 21:15:00
4:35 PM,32.0,28.4,87,30.09,10.0,NNE,5.8,-,N/A,,Overcast,20,2013-02-22 21:35:00
4:55 PM,32.0,28.4,87,30.09,10.0,North,5.8,-,N/A,,Overcast,10,2013-02-22 21:55:00
5:15 PM,32.0,28.4,87,30.07,10.0,NNE,6.9,-,N/A,,Overcast,20,2013-02-22 22:15:00
5:35 PM,32.0,26.6,80,30.07,10.0,NNE,6.9,-,N/A,,Overcast,20,2013-02-22 22:35:00
5:55 PM,32.0,26.6,80,30.07,10.0,NNE,8.1,-,N/A,,Overcast,20,2013-02-22 22:55:00
6:15 PM,32.0,26.6,80,30.06,10.0,NNE,8.1,-,N/A,,Overcast,20,2013-02-22 23:15:00
6:35 PM,32.0,26.6,80,30.07,10.0,NNE,4.6,-,N/A,,Overcast,30,2013-02-22 23:35:00
6:55 PM,32.0,26.6,80,30.07,10.0,NNE,9.2,-,N/A,,Overcast,20,2013-02-22 23:55:00
7:15 PM,32.0,26.6,80,30.08,10.0,NNE,8.1,-,N/A,,Overcast,20,2013-02-23 00:15:00
7:35 PM,32.0,26.6,80,30.07,10.0,NNE,8.1,-,N/A,,Overcast,20,2013-02-23 00:35:00
7:55 PM,32.0,26.6,80,30.07,10.0,NE,4.6,-,N/A,,Overcast,40,2013-02-23 00:55:00
8:15 PM,32.0,26.6,80,30.07,10.0,NE,3.5,-,N/A,,Overcast,40,2013-02-23 01:15:00
8:35 PM,32.0,26.6,80,30.08,10.0,NE,3.5,-,N/A,,Overcast,40,2013-02-23 01:35:00
8:55 PM,32.0,26.6,80,30.09,10.0,NNE,5.8,-,N/A,,Overcast,20,2013-02-23 01:55:00
9:15 PM,32.0,26.6,80,30.09,10.0,NNE,5.8,-,N/A,,Overcast,20,2013-02-23 02:15:00
9:35 PM,32.0,26.6,80,30.09,10.0,NNE,5.8,-,N/A,,Overcast,30,2013-02-23 02:35:00
9:55 PM,32.0,26.6,80,30.09,10.0,NNE,4.6,-,N/A,,Overcast,30,2013-02-23 02:55:00
10:15 PM,32.0,26.6,80,30.09,10.0,NE,3.5,-,N/A,,Overcast,50,2013-02-23 03:15:00
10:35 PM,32.0,26.6,80,30.07,10.0,NNE,3.5,-,N/A,,Overcast,30,2013-02-23 03:35:00
10:55 PM,32.0,26.6,80,30.08,10.0,Calm,Calm,-,N/A,,Overcast,0,2013-02-23 03:55:00
11:15 PM,30.2,26.6,86,30.08,10.0,NNE,3.5,-,N/A,,Overcast,20,2013-02-23 04:15:00
11:35 PM,30.2,26.6,86,30.05,10.0,NNE,3.5,-,N/A,,Overcast,20,2013-02-23 04:35:00
11:55 PM,30.2,26.6,86,30.05,10.0,NNE,8.1,-,N/A,,Overcast,20,2013-02-23 04:55:00